Simultaneous Nadir Overpasses (SNOs) Predictions

Prediction of SNOs between GOES-16 and METOP-C Satellite Orbit:

Table of predicted SNOs for the next 14.0 days since TLE Epoch: 4/2/2023
Index Date Time (GOES-16) GOES-16 Lat,Lon METOP-C Lat,Lon Distance(km) Time Diff (sec)
1 04/03/2023 14:48:18 0.06, -75.22 0.89, -78.98 427.61 80
2 04/04/2023 14:24:59 0.06, -75.23 -0.24, -73.99 142.22 80
3 04/06/2023 02:46:39 -0.06, -75.24 -0.78, -78.59 380.55 80
4 04/07/2023 02:23:20 -0.06, -75.25 0.30, -73.59 189.49 80
5 04/08/2023 14:44:54 0.06, -75.28 0.67, -78.17 328.35 80
6 04/09/2023 14:21:35 0.05, -75.29 -0.41, -73.17 241.80 80
7 04/11/2023 02:43:15 -0.05, -75.30 -0.59, -77.77 280.73 80
8 04/12/2023 02:19:56 -0.05, -75.32 0.49, -72.77 289.33 80
9 04/13/2023 14:38:49 0.05, -75.34 0.52, -77.34 228.40 80
10 04/14/2023 14:18:10 0.04, -75.36 -0.64, -72.36 342.15 80
11 04/16/2023 02:39:50 -0.04, -75.38 -0.41, -76.95 179.22 80
